This is the latest recevied weather packets stored in our database for station/object VK2BLR. If no packets are shown the sender has not sent any weather packets the latest 10 day(s).
| Time | Temp. | Humidity | Pressure | Rain* | Wind** | Luminosity | Snow |
|---|---|---|---|---|---|---|---|
| 1788048392 | 22.78° C | 38% | 1028.6 hPa | 0 mm | - | - | - |
| 1788047491 | 22.22° C | 41% | 1028.4 hPa | 0 mm | - | - | - |
| 1788046592 | 21.67° C | 42% | 1028.4 hPa | 0 mm | - | - | - |
| 1788045691 | 21.11° C | 45% | 1028.5 hPa | 0 mm | - | - | - |
| 1788044790 | 20.56° C | 48% | 1028.5 hPa | 0 mm | - | - | - |
| 1788043891 | 20° C | 49% | 1028.5 hPa | 0 mm | - | - | - |
| 1788042991 | 19.44° C | 50% | 1028.4 hPa | 0 mm | - | - | - |
| 1788042090 | 18.89° C | 54% | 1028.3 hPa | 0 mm | - | - | - |
| 1788041190 | 16.67° C | 61% | 1028.1 hPa | 0 mm | - | - | - |
| 1788040292 | 14.44° C | 67% | 1028 hPa | 0 mm | - | - | - |
| 1788039392 | 12.22° C | 76% | 1028 hPa | 0 mm | - | - | - |
| 1788038491 | 10° C | 83% | 1027.8 hPa | 0 mm | - | - | - |
| 1788037591 | 7.22° C | 89% | 1027.6 hPa | 0 mm | - | - | - |
| 1788036692 | 5.56° C | 86% | 1027.5 hPa | 0 mm | - | - | - |
| 1788035792 | 5.56° C | 86% | 1027.3 hPa | 0 mm | - | - | - |
| 1788034891 | 5.56° C | 86% | 1027.3 hPa | 0 mm | - | - | - |
| 1788033990 | 5.56° C | 85% | 1027.3 hPa | 0 mm | - | - | - |
| 1788033092 | 6.11° C | 85% | 1027.1 hPa | 0 mm | - | - | - |
| 1788032191 | 6.11° C | 85% | 1027 hPa | 0 mm | - | - | - |
| 1788031291 | 6.11° C | 85% | 1027.1 hPa | 0 mm | - | - | - |
| 1788030391 | 6.11° C | 85% | 1026.9 hPa | 0 mm | - | - | - |
| 1788029492 | 6.11° C | 85% | 1026.8 hPa | 0 mm | - | - | - |
| 1788028590 | 6.67° C | 85% | 1026.9 hPa | 0 mm | - | - | - |
| 1788027692 | 6.67° C | 85% | 1026.8 hPa | 0 mm | - | - | - |
| 1788026791 | 6.67° C | 85% | 1026.9 hPa | 0 mm | - | - | - |
* Rain latest hour (hover to see other rain measurements)
** Current wind speed in m/s (hover to see current wind gust speed)